www.pogodaiklimat.ru
Время
(UTC), дата
22 29.05
23 29.05
00 30.05
01 30.05
02 30.05
03 30.05
04 30.05
05 30.05
06 30.05
07 30.05
08 30.05
09 30.05
10 30.05
11 30.05
12 30.05
13 30.05
14 30.05
15 30.05
16 30.05
17 30.05
18 30.05
19 30.05
20 30.05
21 30.05
22 30.05
23 30.05
00 31.05
01 31.05
02 31.05
03 31.05
04 31.05
05 31.05
06 31.05
07 31.05
08 31.05
09 31.05
10 31.05
11 31.05
12 31.05
13 31.05
14 31.05
15 31.05
16 31.05
17 31.05
18 31.05
19 31.05
20 31.05
21 31.05
22 31.05
23 31.05
00 1.06
01 1.06
02 1.06
03 1.06
04 1.06
05 1.06
06 1.06
07 1.06
08 1.06
09 1.06
10 1.06
11 1.06
12 1.06
13 1.06
14 1.06
15 1.06
16 1.06
17 1.06
18 1.06
19 1.06
20 1.06
21 1.06
22 1.06
23 1.06
00 2.06
01 2.06
02 2.06
03 2.06
04 2.06
05 2.06
06 2.06
07 2.06
08 2.06
09 2.06
10 2.06
11 2.06
12 2.06
13 2.06
14 2.06
15 2.06
16 2.06
17 2.06
18 2.06
19 2.06
20 2.06
21 2.06
22 2.06
23 2.06
00 3.06
01 3.06
02 3.06
03 3.06
04 3.06
05 3.06
06 3.06
07 3.06
08 3.06
09 3.06
10 3.06
11 3.06
12 3.06
13 3.06
14 3.06
15 3.06
16 3.06
17 3.06
18 3.06
19 3.06
20 3.06
21 3.06
22 3.06
23 3.06
00 4.06
01 4.06
02 4.06
03 4.06
04 4.06
05 4.06
06 4.06
07 4.06
08 4.06
09 4.06
10 4.06
11 4.06
12 4.06
13 4.06
14 4.06
15 4.06
16 4.06
17 4.06
18 4.06
19 4.06
20 4.06
21 4.06
22 4.06
23 4.06
00 5.06
01 5.06
02 5.06
03 5.06
04 5.06
05 5.06
06 5.06
07 5.06
08 5.06
09 5.06
10 5.06
11 5.06
12 5.06
13 5.06
14 5.06
15 5.06
16 5.06
17 5.06
18 5.06
19 5.06
20 5.06
Ветер
(напр.,м/с)
Видим. Явления Облачность Т
(С)
Тd
(С)
f
(%)
Тe
(С)
Тes
(С)
Комфортность P
(гПа)
Po
(гПа)
Тmin
(С)
Tmax
(С)
R
(мм)
R24
(мм)
S
(см)
С 1-1
{1}
40 км местами туман поземный 1/0
[Ac trans]
+6.4 +6.4 100 +5 +5 1024.2 970.3
С 1-2
{2}
800 м туман местами 1/1 1500 м
[Sc Ac trans]
+5.5 +5.5 100 +4 +4 1024.3 970.2
СВ 1-1
{4}
30 км в посл. час туман туман 1/0
[Ci fib]
+4.2 +4.0 99 +3 +3 1024.3 969.9
С 1-2
{3}
25 км в посл. час туман туман 1/0
[Ci fib]
+5.5 +5.5 100 +4 +4 1023.7 969.6
С 1-2
{2}
25 км местами туман поземный 1/0
[Ac trans Ci fib]
+3.9 +3.9 100 +2 +2 1023.6 969.2
СВ 2-3
{3}
30 км местами туман поземный 1/0
[Ac trans Ci fib]
+4.8 +4.6 99 +2 +2 1023.2 969.0
СВ 1-2
{3}
35 км местами туман поземный 4/0
[Ac trans Ci fib]
+3.0 +2.8 99 +1 +1 1023.5 968.9
С 1-2
{2}
30 км 6/0
[Ac trans Ci fib]
+7.8 +5.4 85 +7 +8 1022.4 968.8
В 2 50 км {туман} 8/0
[Ac trans Ci fib]
+9.0 +4.3 72 +7 +10 1022.4 969.0 +2.8 +13.5
СВ 1-2
{2}
60 км 9/0
[Ac trans Ci fib]
+10.2 +5.0 70 +10 +15 1022.1 969.0
С 1-3
{3}
60 км 9/0
[Ac trans]
+10.8 +5.4 69 +11 +16 1021.8 968.8
СВ 2 60 км 9/1 1050 м
[Cu med, cong Ac trans Ci fib]
+13.3 +4.4 55 +13 +20 1021.1 968.6
В 3-5
{5}
60 км 8/3 1350 м
[Cu med, cong Ac cuf Ci fib]
+16.0 +5.8 51 +16 +22 1020.1 968.1
С 2-4
{6}
60 км 9/5 1500 м
[Cu Sc Ac trans]
+14.8 +5.3 53 +15 +19 1020.2 968.0
С 3 60 км 10/4 1350 м
[Cu Sc Ac trans]
+14.2 +4.6 52 +13 +17 1020.3 968.0
С 2-3
{5}
60 км 10/9 1350 м
[Cu Sc]
+13.2 +5.8 61 +13 +13 1020.5 968.0
СВ 3-4
{4}
60 км в посл. час дождь 9/9 1350 м
[Cu Sc]
+13.6 +6.2 61 +13 +14 1020.2 967.8
В 2 60 км в посл. час дождь 9/4 1500 м
[Cu Sc Ac trans]
+14.3 +4.5 52 +14 +17 1019.9 967.6 0.0
СВ 2-3
{6}
60 км 9/4 1350 м
[Cu Sc Ac trans]
+14.5 +4.4 51 +14 +16 1019.6 967.4
СВ 3-4
{5}
60 км 9/4 1350 м
[Cu Sc Ac trans]
+14.0 +4.7 53 +13 +14 1019.7 967.4
В 2 60 км {дождь} 9/4 1500 м
[Sc Ac trans]
+13.2 +4.6 56 +13 +13 1020.1 967.6 +8.8 +16.1
В 2-2
{4}
60 км в посл. час дождь 9/9 1500 м
[Sc]
+12.3 +6.3 67 +12 +12 1020.3 967.7
В 1-2
{3}
60 км в посл. час дождь 9/0
[Ac trans]
+11.9 +6.6 70 +12 +12 1020.8 968.1
Ю 1-1
{4}
50 км {дождь} 9/0
[Ac trans]
+10.9 +6.6 75 +11 +11 1020.9 968.0 0.0
СЗ 1-1
{1}
60 км 9/0
[Ac trans]
+10.3 +6.9 79 +10 +10 1020.9 967.9
С 1-2
{2}
50 км 9/0
[Ac trans]
+8.4 +6.5 88 +8 +8 1021.2 967.8
СВ 3-4
{4}
40 км {дождь} 9/0
[Ac trans]
+8.9 +7.1 88 +6 +6 1020.9 967.6
З 1-1
{3}
40 км 9/0
[Ac trans]
+7.8 +6.8 93 +7 +7 1020.7 967.2
С 1-1
{2}
35 км 9/0
[Ac trans]
+6.8 +6.3 97 +6 +6 1020.7 967.0
З 1-1
{3}
25 км 9/0
[Ac trans Ci sp]
+5.3 +5.1 99 +4 +4 1020.6 966.7
СЗ 1-2
{2}
12 км местами туман поземный 9/0
[Ac trans Ci sp]
+4.9 +4.7 99 +3 +4 1020.6 966.6
СВ 2-2
{2}
30 км 9/0
[Ac trans Ci sp]
+8.3 +7.1 92 +6 +7 1020.0 966.7
СВ 2 50 км 9/0
[Ac trans Cs]
+9.6 +5.2 74 +8 +11 1020.1 967.0 +4.5 +13.1
СВ 2-3
{3}
50 км 9/0
[Cs]
+11.9 +5.6 65 +11 +17 1019.9 967.2
СВ 2-4
{5}
50 км 8/0
[Ci sp]
+13.6 +4.7 55 +13 +22 1019.8 967.4
СВ 3 50 км 8/1 1200 м
[Cu hum Ci sp]
+15.3 +6.0 54 +15 +25 1019.7 967.6
СВ 3-5
{6}
50 км 9/3 1320 м
[Cu hum Ci sp]
+15.1 +3.0 44 +15 +23 1019.8 967.6
С 2-4
{5}
50 км 9/4 1500 м
[Cu hum Ci sp]
+15.6 +1.6 39 +16 +25 1019.5 967.4
СЗ 2 50 км 9/3 1500 м
[Cu hum As op Ci sp]
+15.7 +0.9 37 +16 +23 1019.5 967.4
С 2-5
{6}
50 км 9/3 1500 м
[Cu hum As trans]
+16.0 +2.2 39 +16 +21 1019.4 967.4
СВ 3-4
{6}
50 км 10/3 1500 м
[Cu hum Ac As Ci sp]
+16.1 +2.8 41 +16 +19 1019.4 967.4
СВ 3 50 км 9/1 1500 м
[Cu hum Ac As Ci sp]
+16.3 +3.7 43 +16 +20 1019.4 967.5
С 2-4
{6}
60 км 9/1 1500 м
[Cu hum Ac As Ci sp]
+16.8 +2.8 39 +17 +20 1019.2 967.4
СВ 4-6
{6}
60 км слаб. дождь 9/6 1350 м
[Sc Ac As]
+15.9 +3.6 44 +15 +16 1019.7 967.7
СВ 3 60 км слаб. дождь 10/6 1350 м
[Sc Ac trans]
+13.3 +7.1 66 +12 +12 1021.0 968.5 +9.6 +17.4 0.0
В 3-4
{5}
60 км в посл. час дождь 10/10 1500 м
[Sc]
+12.9 +7.0 67 +12 +12 1021.7 969.1
В 3-4
{4}
60 км 10/10 1350 м
[Sc]
+12.3 +7.6 73 +11 +11 1022.4 969.7
В 2-3
{5}
60 км {дождь} 10/10 1350 м
[Sc]
+12.0 +7.8 75 +11 +11 1022.6 969.8 0.0
В 2-3
{4}
60 км 10/10 1350 м
[Sc]
+11.6 +7.6 76 +11 +11 1022.7 969.8
В 3-4
{4}
60 км 10/10 1200 м
[Sc]
+11.4 +7.8 79 +10 +10 1022.7 969.8
В 1-2
{5}
60 км {дождь} 9/9 1200 м
[Sc]
+10.9 +8.0 82 +11 +11 1022.3 969.3
В 2-2
{3}
60 км 6/3 1500 м
[Sc Ac trans]
+10.6 +7.9 83 +9 +9 1022.1 969.1
В 1-2
{2}
60 км 3/0
[Ac trans]
+9.4 +7.8 90 +9 +9 1021.9 968.7
штиль 0-1
{3}
40 км местами туман поземный 1/0
[Ac trans]
+7.1 +7.1 100 +6 +6 1022.5 968.8
С 1-1
{1}
40 км местами туман поземный 3/3 2000 м
[Sc]
+5.2 +4.8 97 +4 +4 1023.0 968.9
В 1-1
{1}
30 км 1/1 1500 м
[Sc]
+10.4 +8.1 86 +10 +11 1022.3 969.2
СВ 2 40 км 1/0
[Ac trans]
+12.4 +8.4 77 +12 +15 1022.0 969.3 +5.2 +13.3
СВ 2-4
{4}
45 км ясно +14.4 +8.1 66 +14 +21 1021.6 969.3
В 2-4
{5}
60 км ясно +16.2 +9.2 63 +16 +27 1021.0 969.1
В 3 60 км 1/1 1000 м
[Cu hum]
+17.9 +9.2 57 +18 +29 1020.7 969.1
В 4-6
{7}
60 км 1/1 1080 м
[Cu hum]
+19.1 +9.3 53 +20 +30 1020.1 968.7
В 4-9
{9}
60 км 3/3 1500 м
[Cu hum]
+19.6 +6.8 43 +20 +29 1019.6 968.3
СВ 5-7
{9}
70 км 3/3 1500 м
[Cu hum]
+20.7 +8.1 44 +22 +28 комфорт 1019.2 968.1
В 4-7
{8}
70 км 1/1 1500 м
[Cu hum]
+20.5 +7.8 44 +22 +31 комфорт 1018.9 967.8
В 4-6
{9}
70 км 1/1 1500 м
[Cu hum]
+21.1 +7.4 41 +22 +29 комфорт 1018.5 967.5
СВ 4-7
{9}
70 км 1/1 1500 м
[Cu hum]
+21.7 +6.6 38 +22 +28 комфорт 1017.9 967.0
В 4-6
{8}
70 км 1/1 1500 м
[Cu hum]
+21.6 +7.2 39 +22 +26 комфорт 1017.7 966.8
СВ 3-5
{9}
70 км 1/1 2000 м
[Cu hum]
+21.4 +7.6 41 +22 +24 комфорт 1017.4 966.5
В 3 70 км 1/1 2000 м
[Sc diur, vesp]
+20.1 +8.0 46 +21 +22 комфорт 1017.6 966.5 +12.3 +22.2
ЮВ 2-3
{4}
70 км ясно +18.8 +7.6 48 +20 +20 1017.8 966.4
С 1-1
{3}
70 км ясно +13.1 +8.4 73 +13 +13 1019.1 966.7
С 1-1
{4}
>70 км ясно +11.5 +8.2 80 +11 +11 1019.6 966.9
СЗ 1-1
{1}
>70 км ясно +9.4 +7.5 88 +9 +9 1020.2 967.1
В 1-1
{2}
>70 км ясно +8.5 +6.9 90 +8 +8 1020.1 966.8
СВ 1-2
{4}
>70 км ясно +8.5 +8.1 97 +8 +8 1019.8 966.5
СВ 1-2
{2}
>70 км ясно +8.0 +7.9 99 +7 +7 1019.8 966.4
СЗ 1-1
{2}
>70 км ясно +6.5 +6.1 97 +5 +5 1019.8 966.1
ЮЗ 1-1
{2}
70 км местами туман поземный 1/1 2000 м
[Sc]
+6.1 +6.1 100 +5 +5 1019.6 965.9
Ю 1-1
{1}
60 км местами туман поземный 1/1 2000 м
[Sc]
+5.9 +5.6 98 +5 +5 1019.8 966.0
С 1-1
{1}
60 км 1/1 2000 м
[Sc]
+10.8 +8.9 88 +10 +12 1019.2 966.4
СВ 2 60 км ясно +14.7 +8.7 67 +14 +18 1018.6 966.5 +5.3 +20.0
СВ 2-3
{4}
60 км ясно +16.9 +8.7 58 +17 +24 1018.3 966.6
СВ 2-4
{4}
55 км ясно +19.2 +8.8 51 +21 +31 комфорт 1017.7 966.4
СВ 3 55 км 1/1 1500 м
[Cu hum]
+20.1 +6.9 42 +21 +32 комфорт 1017.2 966.1
С 3-7
{7}
55 км 1/1 1500 м
[Cu hum]
+21.0 +7.0 40 +22 +35 комфорт 1016.6 965.7
С 3-9
{9}
55 км 1/1 1500 м
[Cu hum]
+21.6 +6.0 36 +22 +36 комфорт 1016.1 965.3
В 4-7
{9}
60 км 1/1 1500 м
[Cu hum]
+21.8 +5.8 35 +22 +33 комфорт 1015.7 964.9
В 3-6
{7}
65 км 1/1 1500 м
[Cu hum]
+22.4 +6.8 36 +23 +35 комфорт 1015.0 964.4
В 2-4
{6}
65 км 1/1 1500 м
[Cu hum]
+23.1 +6.9 35 +24 +35 комфорт 1014.0 963.5
В 3-6
{7}
70 км 3/3 2000 м
[Cu hum]
+23.8 +6.9 34 +24 +29 комфорт 1013.2 962.9
В 3-7
{7}
>70 км 1/1 2000 м
[Cu hum Ci fib]
+22.6 +5.0 32 +23 +27 комфорт 1012.8 962.3
СВ 3-3
{6}
>70 км 1/1 2000 м
[Sc diur, vesp Ci fib]
+22.8 +4.7 31 +23 +25 комфорт 1012.1 961.7
В 1 >70 км 3/1 2000 м
[Sc diur, vesp Ci fib]
+21.4 +5.6 36 +22 +23 комфорт 1011.9 961.2 +14.6 +24.0
ЮВ 2-4
{4}
>70 км 3/0
[Ci sp]
+17.1 +8.2 56 +17 +17 1012.3 960.9
штиль 0-1
{2}
>70 км 3/0
[Ci sp]
+12.7 +7.3 70 +12 +12 1013.2 961.0
ЮЗ 1-1
{4}
>70 км 3/0
[Ci sp]
+13.1 +7.7 70 +13 +13 1013.0 960.9
Ю 1-1
{2}
>70 км 3/0
[Ci sp]
+11.1 +7.5 78 +11 +11 1013.0 960.5
З 1-2
{2}
>70 км 3/0
[Ac trans Ci fib]
+8.7 +6.6 87 +8 +8 1013.0 960.1
В 1-1
{4}
70 км 3/0
[Ci fib]
+8.2 +6.5 89 +7 +7 1012.6 959.6
Ю 1-1
{2}
70 км 6/0
[Ci sp]
+8.1 +6.9 92 +7 +7 1012.2 959.2
Ю 1-2
{3}
70 км 4/0
[Ci sp]
+8.2 +6.8 91 +7 +7 1011.7 958.8
В 1-1
{3}
70 км 3/0
[Ci sp]
+7.2 +6.4 95 +6 +6 1011.4 958.3
Ю 2-3
{3}
60 км 6/0
[Ci sp]
+6.5 +5.7 95 +4 +4 1011.1 957.9
Ю 1-2
{4}
60 км 5/0
[Ci sp]
+12.7 +8.7 77 +13 +14 1009.9 957.9
Ю 3 60 км 6/0
[Ci sp]
+14.8 +8.3 65 +14 +17 1009.3 957.7 +5.8 +21.9
ЮЗ 3-4
{5}
60 км 6/0
[Ci sp]
+18.0 +8.7 55 +18 +23 1008.3 957.3
ЮЗ 3-4
{4}
60 км 8/0
[Ci fib]
+20.5 +9.1 48 +22 +30 комфорт 1007.4 956.9
З 2 60 км 8/0
[Ci fib]
+22.4 +8.2 40 +24 +36 комфорт 1006.8 956.6
З 2-4
{5}
60 км 1/1 1500 м
[Cu hum Ci sp]
+23.3 +6.9 35 +24 +39 комфорт 1005.9 955.9
ЮЗ 2-4
{7}
60 км 9/3 2000 м
[Cu med, cong Ci sp]
+24.4 +6.7 32 +24 +35 комфорт 1004.9 955.1
ЮЗ 3-5
{7}
50 км 9/4 2000 м
[Cu med, cong Cs]
+24.0 +5.0 29 +24 +31 комфорт 1004.3 954.4
З 3-6
{6}
50 км 9/4 2000 м
[Cu med, cong Cs]
+24.7 +6.6 31 +25 +31 комфорт 1003.2 953.5
З 3-5
{7}
50 км 10/3 2000 м
[Cu med, cong Ac As Cs]
+25.1 +7.2 32 +25 +29 комфорт 1002.2 952.7
З 3-5
{7}
50 км 9/1 2000 м
[Cu med, cong Ac As Cs]
+25.6 +6.8 30 +25 +29 комфорт 1001.5 952.1
З 4-6
{7}
50 км 9/1 2000 м
[Cu med, cong Ci sp]
+24.9 +6.6 31 +25 +27 комфорт 1001.0 951.5
З 3-5
{5}
60 км 9/1 2000 м
[Cu hum Ci sp]
+24.8 +7.1 32 +25 +26 комфорт 1000.1 950.6
ЮЗ 2 60 км 9/0
[Ac trans Ci sp]
+23.7 +7.8 36 +24 +25 комфорт 1000.0 950.3 +14.8 +26.0
З 2-4
{4}
60 км 9/0
[Ac trans Ci sp]
+21.7 +8.0 41 +23 +23 комфорт 1000.6 950.6
Ю 3-3
{4}
55 км 9/0
[Ac cast Ci sp]
+17.1 +8.7 58 +17 +17 1002.0 951.2
В 1 50 км 9/0
[Ac cast Ci sp]
+15.9 +9.0 64 +17 +17 1001.8 950.8
З 1-2
{2}
50 км 9/0
[Ac cast]
+14.6 +9.2 70 +15 +15 1001.5 950.3
З 3-5
{6}
50 км 9/0
[Ac cast Ci sp]
+13.2 +8.5 73 +12 +12 1001.7 950.2
Ю 4-5
{6}
50 км 9/0
[Ac As]
+14.0 +8.8 71 +13 +13 1001.3 950.0
ЮЗ 2-3
{5}
50 км 9/0
[Ac trans Ci sp]
+11.1 +8.2 82 +10 +10 1001.0 949.2
штиль 0-1
{3}
50 км 9/0
[Ac As]
+12.1 +9.4 84 +12 +12 999.8 948.2
ЮЗ 2-2
{5}
50 км 9/0
[Ac As]
+13.9 +9.8 76 +13 +13 998.9 947.7
З 3-3
{4}
60 км 9/0
[Ac As]
+13.6 +10.1 79 +12 +13 999.0 947.7
ЮЗ 3-4
{5}
70 км 9/0
[Ac As]
+15.3 +10.3 72 +15 +15 998.4 947.5
ЮЗ 5 >70 км 9/0
[Ac As]
+17.1 +10.1 63 +16 +17 997.9 947.3 +10.2 +23.6
З 5-7
{9}
>70 км 6/0
[]
+17.4 +10.5 64 +17 +19 997.9 947.4
З 7-10
{10}
55 км слаб. дождь 10/3 900 м
[Cu hum Ac As]
+17.4 +10.8 65 +16 +17 998.3 947.7
З 3 55 км слаб. дождь 10/3 900 м
[Cu hum Ac As]
+17.1 +11.4 69 +17 +20 998.1 947.5 0.0
З 3-5
{5}
70 км слаб. дождь 9/6 900 м
[Cu med, cong Ac As]
+18.1 +11.8 67 +18 +21 997.8 947.4
З 3-4
{8}
70 км в посл. час дождь 9/6 1500 м
[Cu med, cong Ac As]
+18.5 +10.5 60 +19 +22 997.2 946.9
ЮЗ 3-5
{10}
70 км {дождь} 10/4 1000 м
[Cu med, cong Ac As]
+18.9 +11.1 61 +20 +22 996.6 946.4 0.0
ЮЗ 5-7
{7}
70 км 10/9 1050 м
[Cu Sc]
+19.1 +11.5 61 +20 +20 995.8 945.7
ЮЗ 5-7
{7}
55 км слаб. дождь 10/9 1050 м
[Cu Sc]
+18.0 +11.7 67 +18 +18 995.7 945.4
ЮЗ 6-8
{8}
55 км слаб. дождь 10/9 1050 м
[Cu Sc]
+17.0 +11.8 71 +16 +16 995.8 945.3 0.0
ЮЗ 5-7
{7}
15 км слаб. дождь 10/4 1200 м
[Sc As op]
+15.1 +13.4 90 +14 +14 995.9 945.1
ЮЗ 5-6
{7}
10 км слаб. дождь 10/4 480 м
[Cu Sc As op]
+14.8 +13.9 94 +13 +13 996.1 945.3
ЮЗ 6 25 км слаб. дождь 10/3 360 м
[Cu med, cong As op]
+14.7 +12.9 89 +13 +13 996.7 945.8 +14.7 +19.9 2
ЮЗ 5-8
{10}
20 км слаб. дождь 10/4 360 м
[Cu Sc As op]
+13.8 +12.4 91 +12 +12 997.1 946.0
ЮЗ 5-7
{8}
40 км в посл. час дождь 10/5 1300 м
[Sc Ac As]
+13.3 +12.1 92 +11 +11 997.6 946.4
ЮЗ 7-11
{11}
40 км в посл. час дождь 10/5 1300 м
[Sc Ac As]
+13.3 +11.7 90 +11 +11 997.4 946.2 0.3
ЮЗ 5-8
{11}
25 км слаб. дождь 10/5 1000 м
[Sc As op]
+12.7 +11.8 94 +10 +10 997.7 946.4
ЮЗ 6-9
{10}
25 км слаб. дождь 10/5 1000 м
[Sc As op]
+12.4 +10.8 90 +10 +10 998.0 946.6
ЮЗ 5-6
{11}
35 км слаб. дождь 10/0
[As op]
+11.7 +10.0 89 +9 +9 998.1 946.6 0.4
ЮЗ 5-7
{7}
50 км в посл. час дождь 10/5 1500 м
[Sc Ac As]
+11.3 +9.9 91 +9 +9 998.1 946.5
ЮЗ 4-6
{6}
50 км 10/6 700 м
[Cu Sc Ac As]
+11.4 +9.3 87 +9 +9 997.9 946.3
ЮЗ 4-5
{7}
50 км {дождь} 10/9 750 м
[Sc]
+11.4 +9.4 88 +9 +9 998.1 946.5 0.1
ЮЗ 6-8
{8}
25 км слаб. дождь 10/10 800 м
[Sc]
+11.6 +9.7 88 +9 +9 998.6 947.0
З 4-6
{9}
25 км дождь 10/10 240 м
[Cu Sc]
+11.2 +10.5 95 +9 +9 999.5 947.8
З 4 35 км в посл. час дождь 9/5 300 м
[Sc Ac As]
+11.8 +10.7 93 +10 +10 1000.0 948.4 +11.2 +14.8 0.3 3.0
З 5-7
{7}
30 км 9/4 400 м
[Cu Sc Ac As]
+12.1 +9.9 86 +10 +11 1000.4 948.8
З 3-4
{7}
40 км в посл. час дождь 9/9 450 м
[Cu Sc]
+12.6 +8.3 75 +11 +12 1000.4 948.9
З 3 40 км {дождь} 9/5 600 м
[Cu Sc Ac trans]
+13.4 +9.0 75 +12 +15 1000.4 949.0 0.0
З 4-6
{6}
40 км в посл. час ливневой дождь 8/4 750 м
[Cu Sc Ac trans]
+14.3 +9.1 71 +13 +17 1000.3 949.1
З 3-5
{7}
45 км слаб. ливневой дождь 9/9 750 м
[Cu Sc]
+13.9 +9.2 73 +13 +14 1000.4 949.1
З 3 55 км в посл. час ливневой дождь 9/6 840 м
[Cu Sc Ac trans]
+15.4 +8.9 65 +15 +18 999.8 948.8 0.0
З 7-10
{10}
20 км ливневой дождь 9/9 900 м
[Cu Sc]
+13.2 +10.7 85 +11 +11 1000.8 949.4
З 10-15
{15}
60 км слаб. ливневой дождь 9/9 600 м
[Cb calv]
+12.4 +8.5 77 +9 +9 1001.7 950.1
З 7 60 км в посл. час ливневой дождь 9/1 1050 м
[Cu Sc Ac As]
+14.1 +8.3 68 +12 +13 1000.7 949.4 2
З 5-6
{8}
60 км 8/1 1200 м
[Cu hum Ac As]
+15.3 +8.8 65 +14 +15 1000.7 949.6
ЮЗ 12-16
{16}
60 км 8/4 1300 м
[Cu med, cong Ac trans]
+15.8 +7.2 57 +14 +14 1000.9 949.9
ЮЗ 8 60 км {ливн. осадки} 9/3 1300 м
[Cu med, cong Ac trans]
+15.7 +7.4 58 +14 +14 1001.3 950.2 +11.8 +17.0
ЮЗ 8-13
{13}
70 км 8/4 1350 м
[Cu med, cong Ac trans]
+15.4 +7.6 60 +14 +14 1001.7 950.6
ЮЗ 6-10
{13}
70 км 6/3 1350 м
[Sc Ac trans]
+14.0 +7.3 64 +12 +12 1002.6 951.2
Местоположение метеостанции Мюнхен (Германия): широта 48.35 долгота 11.78 высота над уровнем моря 448 м.
В архиве по умолчанию представлена погода в Мюнхене за последнюю неделю. Архивные данные за месяц целиком и за предыдущие месяцы, начиная с января 2011 года, Вы можете получить, выбрав интересующий диапазон дат из раскрывающегося списка и нажав кнопку "Найти!".
*Определитесь, кто Вы:
Внимание! Время в таблицах - всемирное. Для получения местного времени необходимо прибавить поправку, которая равна 1 ч.
Смотрите также архив погоды в соседних городах и на ближайших метеорологических станциях:
Партнеры нашего сайта:      
Пояснения к столбцам:
  • Ветер - указаны скорость ветра в м/с - средняя за 10 мин, порывы в срок и между сроками (в фигурных скобках) и направление, откуда дует ветер: С - северный,
  • СВ - северо-восточный, В - восточный, ЮВ - юго-восточный, Ю - южный, ЮЗ - юго-западный, З - западный, СЗ - северо-западный.
  • Видимость - горизонтальная дальность видимости в метрах или километрах. При видимости от 1 до 10 км при отсутствии осадков обычно наблюдается дымка, при ухудшении видимости до 1 км и менее - туман. В сухую погоду видимость может ухудшаться дымом, пылью или мглою.
  • Явления - указаны атмосферные явления, наблюдавшиеся в срок или в последний час перед сроком; фигурными скобками обозначены явления, наблюдавшиеся между сроками (за 1-3 часа до срока); квадратными скобками обозначены град или гололедные отложения с указанием их диаметра в мм.
  • Облачность - указаны через наклонную черту общая и нижняя облачность в баллах и высота нижней границы облаков в метрах; квадратными скобками обозначены формы облаков: Ci - перистые, Cs - перисто-слоистые, Cc - перисто-кучевые, Ac - высококучевые, As - высокослоистые, Sc - слоисто-кучевые, Ns - слоисто-дождевые, Cu - кучевые, Cb - кучево-дождевые. Подробнее классификацию облаков см. в Атласе облаков (PDF).
  • T - Температура воздуха - температура, измеренная на высоте 2 м над землей.
  • Td - Температура точки росы - температура, при понижении до которой содержащийся в воздухе водяной пар достигнет насыщения.
  • f - Относительная влажность воздуха - влажноcть воздуха, измеренная на высоте 2 м над землей.
  • Te - Эффективная температура - температура, которую ощущает одетый по сезону человек в тени. Характеристика душности погоды. При расчете учитывается влияние влажности воздуха и скорости ветра на теплоощущения человека.
  • Tes - Эффективная температура на солнце - температура, которую ощущает человек, с поправкой на солнечный нагрев. Характеристика знойности погоды. Зависит от высоты солнца над горизонтом, облачности и скорости ветра. Ночью, в пасмурную погоду, а также при ветре 12 м/с и более поправка равна нулю.
  • P - Атмосферное давление - приведенное к уровню моря атмосферное давление.
  • Po - Атмосферное давление - измеренное на уровне метеостанции атмосферное давление.
  • Tmin - Минимальная температура - минимум температуры воздуха на высоте 2 м над землей.
  • Tmax - Максимальная температура - максимум температуры воздуха на высоте 2 м над землей.
  • R - Количество осадков - Количество выпавших осадков за период времени, мм. При наведении курсора мыши на число - период времени, за который выпало указанное количество осадков.
  • R24 - Количество осадков - Количество выпавших осадков за 24 часа, мм.
  • S - Снежный покров - Высота снежного покрова, см. При наведении курсора мыши на число - состояние снежного покрова и степень покрытия местности в баллах.